Regional Weather Roundup
Issued by NWS State College, PA

Home | Current Version | Previous Version | Graphics & Text | Print | Product List | Glossary Off
Versions: 1 2 3 4 5 6 7 8 9 10 11 12 13 14 15 16 17 18 19 20 21 22 23 24 25 26 27 28 29 30 31 32 33 34 35 36 37 38 39 40 41 42 43 44 45 46 47 48 49 50

000
ASUS41 KCTP 211810
RWRCTP

REGIONAL WEATHER ROUNDUP
NATIONAL WEATHER SERVICE STATE COLLEGE PA
200 PM EDT TUE OCT 21 2014

Note: "fair" indicates few or no clouds below 12,000 feet with no
significant weather and/or obstructions to visibility.

* = STATION THAT DOES NOT REPORT PRECIPITATION /E.G. RAIN...SNOW...ETC/
    THUNDER OR FOG.

PAZ002>004-007>009-013>016-020>023-029>032-211900-
WESTERN PENNSYLVANIA

CITY           SKY/WX    TMP DP  RH WIND       PRES   REMARKS
ERIE           CLOUDY    51  44  77 NW6       29.90S
MEADVILLE      CLOUDY    48  45  89 NW5       29.89S
FRANKLIN*      CLOUDY    48  45  87 NW5       29.89S
NEW CASTLE     LGT RAIN  50  48  92 NW10      29.92R FOG
BEAVER COUNTY  LGT RAIN  50  48  93 NW6       29.89F
BUTLER*        CLOUDY    52  46  82 NW6       29.90S
PITTSBURGH INT CLOUDY    54  45  71 NW9       29.88F
PITTSBURGH     CLOUDY    54  43  66 N8        29.87F
INDIANA*       CLOUDY    52  48  87 NW6G13    29.90S
LATROBE        CLOUDY    52  52 100 CALM      29.88F
WASHINGTON CO* CLOUDY    52  46  82 NW7       29.90F
$$

PAZ004>006-010>012-017>019-024>028-033>037-041-042-045-046-049>053-211900-
CENTRAL PENNSYLVANIA

CITY           SKY/WX    TMP DP  RH WIND       PRES   REMARKS
BRADFORD       LGT RAIN  50  43  77 N5        29.85F
DUBOIS         LGT RAIN  47  46  97 N6        29.85F
CLEARFIELD     LGT RAIN  50  48  93 CALM      29.85F
JOHNSTOWN      LGT RAIN  49  43  80 W9        29.85S
ALTOONA        PTSUNNY   57  46  66 NW3       29.84F
STATE COLLEGE  RAIN      54  50  87 CALM      29.85S
WILLIAMSPORT   CLOUDY    57  46  66 CALM      29.84F
SELINSGROVE    CLOUDY    59  48  67 CALM      29.85F
FT INDIANTOWN  CLOUDY    60  53  77 NW5       29.84F
CAPITAL CITY   CLOUDY    62  49  62 N5        29.84F
HARRISBURG     PTSUNNY   63  49  60 W6        29.83F
YORK           PTSUNNY   64  50  60 VRB5      29.83F
$$

PAZ038>040-043-044-047-048-054-055-060>062-067>071-211900-
EASTERN PENNSYLVANIA

CITY           SKY/WX    TMP DP  RH WIND       PRES   REMARKS
SCRANTON       CLOUDY    59  47  64 W5        29.83F
MOUNT POCONO   CLOUDY    54  47  77 SE8       29.85F
ALLENTOWN      CLOUDY    64  48  56 CALM      29.83F
QUAKERTOWN*    MOCLDY    64  50  59 N3        29.83F
READING        MOSUNNY   64  49  57 CALM      29.82F
LANCASTER      PTSUNNY   62  49  62 N7        29.83F
COATESVILLE    PTCLDY    63  48  59 NW7       29.84F
POTTSTOWN      CLOUDY    65  47  52 NW6       29.84F
BLUE BELL      SUNNY     68  46  45 CALM      29.81F
DOYLESTOWN     MOSUNNY   64  50  60 SE3       29.81F
WILLOW GROVE   NOT AVBL
NORTH PHILA    SUNNY     69  45  41 SW6       29.83F
PHILADELPHIA   MOSUNNY   68  46  45 W5        29.82F
$$



USA.gov is the U.S. government's official web portal to all federal, state and local government web resources and services.